Current weather by "City, St" or "zip code"  
 

Current Conditions: Auburn Municipal Airport, CA

Fog/Mist


59.0 F

Last Updated on Oct 21 2021, 9:55 am PDT
Humidity: 100%
Wind Speed: S 6.9 G 15.0 mph
Barometer 30.16 in
Dewpoint: 59.0 F
Visibility: 1.50 mi
Precip: --
Heat Index: NA
Wind Chill: 58 F
Current conditions at:

Auburn Municipal Airport, CA (KAUN)

Lat: 38.95535 Lon: 121.08636

Local Radar Image active severe weather and emergency alerts image image weather storm and storm spotter reports image weather observation monitoring service image
Local
Radar
Active
Alerts
Storm Reports Obs
Monitoring

Sign-up For Email & Text Message Weather Alert Notification Services



Advertise Here

Observation History for Auburn Municipal Airport, CA


Time Wind
(mph)
Vis
(mi)
Weather Precip (in) Temperature (F) Relative
Humidity
Wind
Chill
(F)
Heat
Index
(F)
Pressure
Air Dwpt altimeter
(in)
sea level
(mb)
Rmks
9:55 am PDT S 6.9 G 15.0 1.50 Fog/Mist -- 59.0 59.0 100% 58 NA 30.16 M
8:55 am PDT SE 6.9 1.25 Fog/Mist -- 61.0 59.0 94% 60 NA 30.14 M
7:55 am PDT SE 6.9 10.00 Overcast -- 59.0 59.0 100% 58 NA 30.13 M
6:55 am PDT E 8.1 10.00 Overcast -- 59.0 57.2 94% 58 NA 30.12 M
5:55 am PDT SE 11.5 10.00 Overcast -- 59.0 57.2 94% 57 NA 30.12 M
4:55 am PDT SE 8.1 2.00 Fog/Mist -- 57.0 57.2 100% 55 NA 30.11 M
3:55 am PDT SE 6.9 2.00 Fog/Mist -- 57.0 55.4 94% 56 NA 30.11 M
2:55 am PDT SE 10.4 10.00 Overcast -- 59.0 53.6 82% 57 NA 30.12 M
1:55 am PDT SE 10.4 10.00 Overcast -- 59.0 51.8 77% 57 NA 30.12 M
12:55 am PDT E 8.1 10.00 Overcast -- 57.0 53.6 88% 55 NA 30.12 M
11:55 pm PDT E 13.8 10.00 Overcast -- 57.0 53.6 88% 54 NA 30.12 M
10:55 pm PDT E 9.2 3.00 Fog/Mist -- 55.0 53.6 94% 52 NA 30.12 M
9:55 pm PDT E 3.5 3.00 Fog/Mist -- 55.0 53.6 94% NA NA 30.13 M
8:55 pm PDT SE 8.1 7.00 Overcast -- 57.0 51.8 82% 55 NA 30.11 M
7:55 pm PDT N 0.0 10.00 Overcast -- 59.0 48.2 68% NA NA 30.10 M
6:55 pm PDT N 0.0 10.00 Mostly Cloudy -- 57.0 46.4 67% NA NA 30.09 M
5:55 pm PDT N 0.0 10.00 Mostly Cloudy -- 63.0 44.6 52% NA NA 30.10 M
4:55 pm PDT N 0.0 10.00 Overcast -- 63.0 44.6 52% NA NA 30.10 M
3:55 pm PDT N 0.0 10.00 Overcast -- 64.0 42.8 46% NA NA 30.10 M
2:55 pm PDT N 0.0 10.00 Overcast -- 63.0 41.0 45% NA NA 30.11 M
1:55 pm PDT SW 6.9 10.00 Overcast -- 64.0 39.2 40% NA NA 30.11 M
12:55 pm PDT N 0.0 10.00 Overcast -- 63.0 35.6 37% NA NA 30.12 M
11:55 am PDT N 0.0 10.00 Overcast -- 61.0 35.6 39% NA NA 30.12 M
10:55 am PDT N 0.0 10.00 Overcast -- 61.0 33.8 36% NA NA 30.12 M

Regional Weather Observation


Nevada County Air Park, CA (KGOO)

Fog/Mist
55.0 F

Marysville, Yuba County Airport, CA (KMYV)

NULL
60.0 F

Auburn Municipal Airport, CA (KAUN)

Fog/Mist
59.0 F

Oroville Municipal Airport, CA (KOVE)

Light Rain Fog/Mist
62.0 F

Lincoln Regional Karl Harder Field, CA (KLHM)

Mostly Cloudy
59.0 F

Emigrant Gap, Blue Canyon Nyack Airport, CA (KBLU)

Light Rain Fog
51.0 F

Advertise Here


Advertise Here